Montego Bay, Jamaica

9:11 PM EST on December 15, 2017 (GMT -0500)
Sangster International

Weather History for MKJS - November, 2013

Change the Weather History Date:

Tuesday, November 5, 2013

  Actual Average Record
Temperature  
Mean Temperature 84 °F -  
Max Temperature 90 °F 84 °F 92 °F (2015)
Min Temperature 77 °F 75 °F 74 °F (2012)
Cooling Degree Days 18    
Growing Degree Days 34 (Base 50)    
Moisture  
Dew Point 77 °F    
Average Humidity 89    
Maximum Humidity 100    
Minimum Humidity 75    
Precipitation  
Precipitation 2.95 in - - ()
Sea Level Pressure  
Sea Level Pressure 29.81 in    
Wind  
Wind Speed 4 mph ()    
Max Wind Speed 15 mph    
Max Gust Speed -    
Visibility 7.0 miles    
Events Rain , Thunderstorm    
Averages and records for this station are not official NWS values.
T = Trace of Precipitation, MM = Missing Value Source: Averaged Metar Reports

Daily Weather History Graph

Daily Weather History Graph

Search for Another Location

Airport or City:

Trip Planner

Search our weather history database for the weather conditions in past years. The results will help you decide how hot, cold, wet, or windy it might be!

Date:

Astronomy

Nov. 05, 2013 Rise Set
Actual Time 6:13 AM EST 5:36 PM EST
Civil Twilight 5:50 AM EST 5:59 PM EST
Nautical Twilight 5:24 AM EST 6:25 PM EST
Astronomical Twilight 4:58 AM EST 6:51 PM EST
Moon 8:15 AM EST (11/5) 7:47 PM EST (11/5)
Length of Visible Light 12h 08m
Length of Day
11h 23m
Waxing Crescent, 6% of the Moon is Illuminated
Nov 5
Waxing Crescent
Nov 10
First Quarter
Nov 17
Full
Nov 25
Last Quarter
Dec 2
New

Hourly Weather History & Observations

Time (EST) Temp. Heat Index Dew Point Humidity Pressure Visibility Wind Dir Wind Speed Gust Speed Precip Events Conditions
12:00 AM 80.6 °F 87.1 °F 77.0 °F 89% 29.83 in 6.2 mi ESE 3.5 mph - N/A   Partly Cloudy
1:00 AM 80 °F - 77 °F 86% 29.82 in 12 mi SE 2.3 mph - -   Scattered Clouds
1:00 AM 80.6 °F 87.1 °F 77.0 °F 89% 29.80 in 6.2 mi Variable 2.3 mph - N/A   Partly Cloudy
2:00 AM 78.8 °F - 75.2 °F 89% 29.80 in 6.2 mi SE 4.6 mph - N/A   Partly Cloudy
3:00 AM 80.6 °F 86.2 °F 75.2 °F 84% 29.80 in 6.2 mi Variable 2.3 mph - N/A   Mostly Cloudy
4:00 AM 80 °F - 75 °F 82% 29.79 in 12 mi SSE 3.5 mph - -   Partly Cloudy
4:00 AM 78.8 °F - 75.2 °F 89% 29.77 in 6.2 mi SSE 3.5 mph - N/A   Scattered Clouds
5:00 AM 78.8 °F - 75.2 °F 89% 29.80 in 6.2 mi Variable 2.3 mph - N/A   Partly Cloudy
6:00 AM 77.0 °F - 75.2 °F 94% 29.80 in 6.2 mi SE 3.5 mph - N/A   Scattered Clouds
7:00 AM 80 °F - 77 °F 87% 29.83 in 15 mi ENE 2.3 mph - -   Partly Cloudy
7:00 AM 80.6 °F 87.1 °F 77.0 °F 89% 29.83 in 6.2 mi Variable 2.3 mph - N/A   Partly Cloudy
8:00 AM 82.4 °F 92.4 °F 78.8 °F 89% 29.83 in 6.2 mi East 5.8 mph - N/A   Partly Cloudy
9:00 AM 86.0 °F 99.3 °F 78.8 °F 79% 29.86 in 6.2 mi NE 8.1 mph - N/A   Scattered Clouds
10:00 AM 86 °F - 79 °F 75% 29.86 in 16 mi NE 8.1 mph - -   Scattered Clouds
10:00 AM 86.0 °F 99.3 °F 78.8 °F 79% 29.83 in 6.2 mi NE 8.1 mph - N/A   Partly Cloudy
1:00 PM 87 °F - 80 °F 75% 29.79 in 12 mi ENE 15.0 mph - -   Mostly Cloudy
1:00 PM - - - N/A% - - ENE 15.0 mph - N/A   Unknown
2:00 PM 84.2 °F 96.1 °F 78.8 °F 84% 29.77 in 6.2 mi ENE 10.4 mph - N/A   Scattered Clouds
2:35 PM 82.4 °F 94.0 °F 80.6 °F 94% 29.77 in 0.9 mi East 8.1 mph - N/A Rain , Thunderstorm Thunderstorms and Rain
3:00 PM 78.8 °F - 78.8 °F 100% 29.77 in 2.5 mi East 5.8 mph - N/A Rain , Thunderstorm Light Thunderstorms and Rain
3:14 PM 78.8 °F - 78.8 °F 100% 29.77 in 0.6 mi East 13.8 mph - N/A Rain , Thunderstorm Heavy Thunderstorms and Rain
4:00 PM 79 °F - 79 °F 99% 29.80 in 2 mi ESE 9.2 mph - - Rain , Thunderstorm Thunderstorms and Rain
4:00 PM 78.8 °F - 78.8 °F 100% 29.77 in 1.9 mi ESE 9.2 mph - N/A Rain , Thunderstorm Thunderstorms and Rain
4:25 PM 78.8 °F - 77.0 °F 94% 29.77 in 6.2 mi SSE 8.1 mph - N/A Thunderstorm Thunderstorm
5:00 PM 78.8 °F - 75.2 °F 89% 29.77 in 6.2 mi East 4.6 mph - N/A   Mostly Cloudy
6:00 PM 80.6 °F 88.1 °F 78.8 °F 94% 29.80 in 6.2 mi ENE 2.3 mph - N/A Rain Light Rain Showers
7:00 PM 79 °F - 78 °F 95% 29.82 in 12 mi South 2.3 mph - - Rain Light Rain Showers
7:00 PM 78.8 °F - 77.0 °F 94% 29.80 in 6.2 mi South 2.3 mph - N/A Thunderstorm Mostly Cloudy
8:00 PM 78.8 °F - 77.0 °F 94% 29.83 in 6.2 mi ENE 1.2 mph - N/A   Partly Cloudy
9:00 PM 78.8 °F - 77.0 °F 94% 29.83 in 6.2 mi South 1.2 mph - N/A   Partly Cloudy
10:00 PM 79 °F - 76 °F 86% 29.85 in 12 mi SSE 4.6 mph - -   Scattered Clouds
10:00 PM 78.8 °F - 75.2 °F 89% 29.83 in 6.2 mi SSE 4.6 mph - N/A   Partly Cloudy
11:00 PM 78.8 °F - 77.0 °F 94% 29.86 in 6.2 mi SSW 2.3 mph - N/A   Partly Cloudy